Date,TemperatureHighF,TemperatureAvgF,TemperatureLowF,DewpointHighF,DewpointAvgF,DewpointLowF,HumidityHigh,HumidityAvg,HumidityLow,PressureMaxIn,PressureMinIn,WindSpeedMaxMPH,WindSpeedAvgMPH,GustSpeedMaxMPH,PrecipitationSumIn
2013-3-1,30.0,27.2,21.3,25.2,20.4,16.1,83,75,66,30.22,30.06,7,2,9,0.00
2013-3-2,28.5,21.4,13.7,18.7,15.4,11.4,92,78,64,30.23,30.15,13,2,15,0.00
2013-3-3,31.5,21.1,10.9,20.4,15.0,9.1,93,78,58,30.18,30.09,9,1,11,0.00
2013-3-4,35.3,22.0,8.4,20.1,14.6,6.3,93,75,51,30.23,30.13,7,1,8,0.00
2013-3-5,32.5,26.7,20.6,24.6,19.6,14.2,87,74,66,30.17,29.90,10,3,14,0.00
2013-3-6,38.2,32.7,26.7,30.1,27.7,23.3,90,82,70,30.28,30.00,10,2,12,0.00
2013-3-7,36.3,31.3,21.9,29.6,25.0,19.3,90,78,58,30.47,30.27,10,2,10,0.00
2013-3-8,39.1,27.9,15.4,27.1,21.7,13.8,95,79,57,30.56,30.43,5,1,7,0.00
2013-3-9,42.7,34.8,22.9,34.3,27.7,20.8,93,76,62,30.44,29.98,11,2,15,0.00
2013-3-10,51.4,45.0,40.8,45.2,40.7,34.2,96,85,65,29.98,29.71,8,1,9,0.35
2013-3-11,52.2,43.8,33.8,48.8,41.5,32.5,98,92,71,29.71,29.51,15,3,21,0.22
2013-3-12,34.9,31.6,28.4,33.2,27.8,24.0,96,86,72,29.94,29.69,12,2,14,0.01
2013-3-13,30.1,26.8,23.3,26.3,19.7,14.7,92,75,56,30.30,29.94,16,4,20,0.00
2013-3-14,39.2,30.0,20.3,27.1,21.1,17.5,90,70,48,30.33,30.14,8,1,10,0.00
2013-3-15,40.1,35.6,32.3,35.2,32.6,27.1,96,89,78,30.14,29.87,8,2,11,0.07
2013-3-16,34.3,29.3,26.0,31.2,25.0,20.0,96,84,69,30.13,29.79,9,3,12,0.02
2013-3-17,32.2,27.5,23.3,22.4,17.1,12.2,78,65,51,30.32,30.13,12,3,15,0.01
2013-3-18,33.8,27.6,21.1,32.0,24.1,16.4,96,87,73,30.18,29.62,13,3,17,0.00
2013-3-19,29.2,24.1,19.7,25.3,18.6,15.0,92,80,58,30.02,29.69,15,4,20,0.00
2013-3-20,27.4,21.4,14.3,18.0,15.2,12.2,92,77,58,30.05,29.99,13,3,17,0.00
2013-3-21,29.8,23.3,13.8,25.8,19.0,11.9,94,84,71,30.06,29.97,12,2,15,0.00
2013-3-22,35.7,28.9,23.4,25.3,21.8,18.2,90,75,62,30.11,30.04,8,1,12,0.04
2013-3-23,35.5,29.7,23.4,25.9,23.5,20.3,89,78,66,30.19,30.10,7,1,10,0.00
2013-3-24,37.7,30.3,23.2,27.1,23.8,19.8,93,77,60,30.11,29.75,14,3,16,0.00
2013-3-25,39.2,33.8,30.1,28.1,26.0,22.8,81,73,60,30.04,29.71,14,4,18,0.00
2013-3-26,40.1,34.8,29.6,34.4,30.2,26.4,90,83,70,30.23,30.04,12,3,14,0.00
2013-3-27,42.7,36.0,30.7,30.7,27.9,24.0,95,74,52,30.31,30.23,14,3,19,0.00
2013-3-28,49.3,36.8,28.1,31.0,26.7,24.3,93,69,41,30.35,30.30,12,2,13,0.00
2013-3-29,50.6,35.4,21.8,33.4,26.5,20.4,96,74,38,30.35,30.28,10,1,11,0.00
2013-3-30,56.7,38.9,19.7,36.3,27.4,18.4,98,69,33,30.28,29.91,10,1,12,0.00
2013-3-31,48.7,42.8,36.3,41.7,37.5,31.4,96,82,62,29.91,29.70,13,3,19,0.04